Regional Weather Roundup
Issued by NWS Northern Indiana

Home | Current Version | Previous Version | Text Only | Print | Product List | Glossary On
Versions: 1 2 3 4 5 6 7 8 9 10 11 12 13 14 15 16 17 18 19 20 21 22 23 24 25 26 27 28 29 30 31 32 33 34 35 36 37 38 39 40 41 42 43 44 45 46 47 48 49 50
000
ASUS43 KIWX 081110
RWRIWX

KIWX WEATHER ROUNDUP
NATIONAL WEATHER SERVICE NORTHERN INDIANA
600 AM EST MON FEB 08 2016

NOTE: "FAIR" INDICATES FEW OR NO CLOUDS BELOW 12,000 FEET WITH NO
SIGNIFICANT WEATHER AND/OR OBSTRUCTIONS TO VISIBILITY.

* THESE STATIONS ARE NOT UNDER NWS QUALITY CONTROL. THEY ALSO MAY NOT
  REPORT WEATHER SUCH AS PRECIPITATION OR FOG.

INZ001>027-081200-
NORTHERN INDIANA

CITY           SKY/WX    TMP DP  RH WIND       PRES   REMARKS
GARY*          CLEAR     30  25  80 SW5       29.64F WCI  25
VALPARAISO     CLEAR     28  25  88 S5        29.64S WCI  23
MICHIGAN CITY* CLEAR     28  27  93 S5        29.64F WCI  23
LAPORTE*       MOCLDY    29  29 100 SW6       29.64S WCI  23
SOUTH BEND     PTCLDY    25  22  88 CALM      29.63F
GOSHEN         CLEAR     28  24  85 SW5       29.63S WCI  23
MONTICELLO*    CLOUDY    32  26  77 CALM      29.66S
LOGANSPORT*    MOCLDY    32  27  80 SW7       29.67S WCI  26
ROCHESTER*     MOCLDY    32  28  86 SW5       29.65S WCI  27
WARSAW*        PTCLDY    27  27 100 CALM      29.64S
ANGOLA*        CLEAR     27  27 100 CALM      29.62S
FORT WAYNE     CLOUDY    31  29  92 SW8       29.66R WCI  23
HUNTINGTON*    CLOUDY    32  28  86 SW3       29.66R
PERU/GRISSOM   MOCLDY    32  30  91 SW3       29.64S
MARION*        CLOUDY    31  25  76 SW7       29.67S WCI  25

$$
INZ028>050-081200-
CENTRAL INDIANA

CITY           SKY/WX    TMP DP  RH WIND       PRES   REMARKS
LAFAYETTE      MOCLDY    32  27  81 CALM      29.67S
KOKOMO*          N/A     34  27  75 SW7       29.66F WCI  28
MUNCIE*        MOCLDY    36  29  75 W6        29.66F
INDIANAPOLIS   LGT SNOW  33  31  92 S3        29.67F FOG

$$
MIZ043>046-050>051-056>058-064>065-071>073-077>080-081200-
SOUTHWEST LOWER MICHIGAN

CITY           SKY/WX    TMP DP  RH WIND       PRES   REMARKS
BATTLE CREEK   PTCLDY    29  25  85 S6        29.62S WCI  23
BENTON HARBOR  MOCLDY    27  24  89 CALM      29.62S
COLDWATER*     PTCLDY    30  29  96 CALM      29.62S
HILLSDALE*     CLOUDY    32  30  93 SW3       29.61S
HOLLAND        CLOUDY    30  28  92 SE3       29.61S
GRAND RAPIDS   CLEAR     27  24  89 S3        29.60F
KALAMAZOO      CLEAR     29  25  85 S5        29.62S WCI  24
STURGIS*       PTCLDY    27  25  94 S3        29.61F
THREE RIVERS*  FAIR      27  27  98 CALM      29.63S FOG

$$
OHZ001>008-015>018-024>025-081200-
NORTHWEST OHIO

CITY           SKY/WX    TMP DP  RH WIND       PRES   REMARKS
DEFIANCE       CLOUDY    33  29  85 CALM      29.64S
FINDLAY        CLOUDY    37  31  78 SW3       29.63F
TOLEDO EXPRESS CLOUDY    33  28  81 SW3       29.63S
TOLEDO METCALF MOCLDY    35  31  85 SW6       29.64S WCI  30
LIMA           CLOUDY    36  32  85 SW6       29.63F

$$
AND FOR LAKE MICHIGAN COASTAL AND OPEN LAKE BUOY OBSERVATIONS

STATION/POSITION TEMP    WIND        PRES    VSBY  WAVE
                 AIR SEA DIR/SP/G                  HT/PER
                 (F)     (DEG/KT/KT) (MB)    (MI)  (FT/S)
CALUMET HARBOR    31     210/  3/  5 1003.0F
MICHIGAN CITY     32     200/ 10/ 11   N/A
BURNS HARBOR      33     220/  7/ 10 1004.4F
SAINT JOSEPH      34     210/  9/ 11 1003.4F

$$
&&



USA.gov is the U.S. government's official web portal to all federal, state and local government web resources and services.